TimeCDT,TemperatureF,Dew PointF,Humidity,Sea Level PressureIn,VisibilityMPH,Wind Direction,Wind SpeedMPH,Gust SpeedMPH,PrecipitationIn,Events,Conditions,WindDirDegrees,DateUTC
12:52 AM,52.0,46.0,80,30.04,10.0,ESE,6.9,-,N/A,,Clear,110,2013-10-09 05:52:00
1:52 AM,52.0,46.9,83,30.04,10.0,Calm,Calm,-,N/A,,Clear,0,2013-10-09 06:52:00
2:52 AM,50.0,46.0,86,30.04,10.0,Calm,Calm,-,N/A,,Clear,0,2013-10-09 07:52:00
3:52 AM,50.0,45.0,83,30.04,10.0,Calm,Calm,-,N/A,,Clear,0,2013-10-09 08:52:00
4:52 AM,48.0,44.1,86,30.05,10.0,Calm,Calm,-,N/A,,Clear,0,2013-10-09 09:52:00
5:52 AM,51.1,46.0,83,30.06,10.0,SSE,3.5,-,N/A,,Clear,160,2013-10-09 10:52:00
6:52 AM,50.0,45.0,83,30.06,10.0,SSE,3.5,-,N/A,,Clear,160,2013-10-09 11:52:00
7:52 AM,50.0,46.0,86,30.08,10.0,SSE,3.5,-,N/A,,Clear,150,2013-10-09 12:52:00
8:52 AM,57.0,48.9,74,30.09,10.0,SSE,8.1,-,N/A,,Clear,160,2013-10-09 13:52:00
9:52 AM,63.0,50.0,63,30.09,10.0,South,9.2,-,N/A,,Clear,170,2013-10-09 14:52:00
10:52 AM,66.9,50.0,54,30.10,10.0,South,15.0,-,N/A,,Clear,170,2013-10-09 15:52:00
11:52 AM,71.1,52.0,51,30.10,10.0,South,12.7,-,N/A,,Clear,170,2013-10-09 16:52:00
12:52 PM,72.0,53.1,51,30.08,10.0,SSE,12.7,-,N/A,,Clear,160,2013-10-09 17:52:00
1:52 PM,75.0,54.0,48,30.04,10.0,SSE,9.2,18.4,N/A,,Clear,150,2013-10-09 18:52:00
2:52 PM,77.0,55.0,47,30.02,10.0,SSE,10.4,-,N/A,,Clear,160,2013-10-09 19:52:00
3:52 PM,77.0,54.0,45,30.01,10.0,South,10.4,-,N/A,,Clear,180,2013-10-09 20:52:00
5:52 PM,75.0,54.0,48,30.01,10.0,South,8.1,-,N/A,,Clear,170,2013-10-09 22:52:00
6:52 PM,69.1,54.0,58,30.01,10.0,SSE,4.6,-,N/A,,Clear,160,2013-10-09 23:52:00
7:52 PM,64.0,54.0,70,30.01,10.0,ESE,5.8,-,N/A,,Clear,120,2013-10-10 00:52:00
8:52 PM,62.1,54.0,75,30.01,10.0,SE,4.6,-,N/A,,Clear,140,2013-10-10 01:52:00
9:52 PM,61.0,54.0,78,30.02,10.0,ESE,6.9,-,N/A,,Clear,120,2013-10-10 02:52:00
10:52 PM,57.9,52.0,81,30.04,10.0,Calm,Calm,-,N/A,,Clear,0,2013-10-10 03:52:00
11:52 PM,57.9,51.1,78,30.04,10.0,SE,4.6,-,N/A,,Clear,140,2013-10-10 04:52:00